Hourly Data Report for September 20, 2017

All times are specified in Local Standard Time (LST). Add 1 hour to adjust for Daylight Saving Time where and when it is observed.

ARCTIC BAY CS
NUNAVUT

72°59'34.000" N
85°00'44.000" W
10.00 m
2400404
71592
XAT

Download Data

Hourly Data (September 2017)
Hourly Data Report for September 20, 2017
Temp Definition
°C
Dew Point Temp Definition
°C
Rel Hum Definition
%
Wind Dir Definition
10's deg

Wind Spd Definition
km/h
Visibility Definition
km
Stn Press Definition
kPa
Hmdx Definition


Wind Chill Definition


Weather Definition


TIME
00:00 -5.8 -9.6 75 7 10   102.58   -10 LegendNANA
01:00 -5.8 -9.6 75 7 13   102.60   -11 LegendNANA
02:00 -5.8 -9.3 76 7 9   102.63   -10 LegendNANA
03:00 -6.6 -10.5 74 6 12   102.67   -12 LegendNANA
04:00 -7.2 -11.0 74 7 17   102.72   -14 LegendNANA
05:00 -7.3 -11.4 72 7 16   102.72   -14 LegendNANA
06:00 -7.2 -11.2 73 7 18   102.74   -14 LegendNANA
07:00 -6.8 -11.0 72 7 17   102.74   -13 LegendNANA
08:00 -6.7 -10.9 72 6 13   102.75   -12 LegendNANA
09:00 -6.4 -10.8 71 7 12   102.78   -12 LegendNANA
10:00 -5.7 -10.3 70 7 10   102.77   -10 LegendNANA
11:00 -5.3 -9.5 72 9 6   102.75   -8 LegendNANA
12:00 -3.4 -7.1 76 11 3   102.76   -5 LegendNANA
13:00 -3.8 -7.1 78 11 6   102.75   -6 LegendNANA
14:00 -3.7 -7.1 77 12 5   102.76   -6 LegendNANA
15:00 -3.7 -6.9 79 12 6   102.76   -6 LegendNANA
16:00 -3.1 -6.6 77 13 3   102.78   -4 LegendNANA
17:00 -3.6 -6.7 79 13 4   102.74   -5 LegendNANA
18:00 -4.1 -8.2 73 8 10   102.74   -8 LegendNANA
19:00 -5.3 -9.2 74 7 17   102.74   -11 LegendNANA
20:00 -5.4 -9.6 72 7 19   102.73   -12 LegendNANA
21:00 -5.6 -9.5 74 7 17   102.73   -12 LegendNANA
22:00 -5.6 -9.7 73 7 18   102.71   -12 LegendNANA
23:00 -5.6 -9.8 72 7 15   102.69   -11 LegendNANA

Notes on Data Quality.

Legend

  • E = Estimated
  • M = Missing
  • NA = Not Available
  • ‡ = Partner data that is not subject to review by the National Climate Archives
Date modified: